Track COSMOS 1524 now! 10-day predictions COSMOS 1524 is classified as:
1 14613U 84001C 21108.58981663 -.00000014 00000-0 14431-4 0 9999 2 14613 74.0083 70.4919 0032542 289.8076 189.7385 12.56705208710415